Regional Weather Roundup
Issued by NWS Jackson, KY

Home | Current Version | Previous Version | Graphics & Text | Print | Product List | Glossary On
Versions: 1 2 3 4 5 6 7 8 9 10 11 12 13 14 15 16 17 18 19 20 21 22 23 24 25 26 27 28 29 30 31 32 33 34 35 36 37 38 39 40 41 42 43 44 45 46 47 48 49 50
000
ASUS43 KJKL 281811
RWRJKL

EAST KENTUCKY HOURLY WEATHER ROUNDUP
NATIONAL WEATHER SERVICE JACKSON KY
100 PM EST FRI NOV 28 2014

NOTE: "FAIR" INDICATES FEW OR NO CLOUDS BELOW 12,000 FEET WITH
NO SIGNIFICANT WEATHER AND/OR OBSTRUCTIONS TO VISIBILITY.

* THESE REPORTS ARE NOT UNDER NWS QUALITY CONTROL AND MAY NOT
  REPORT WEATHER SUCH AS PRECIPITATION AND FOG.

KYZ079-080-083-085-087-088-110-112-115-119-120-281900
...EASTERN KENTUCKY...

CITY           SKY/WX    TMP DP  RH WIND       PRES   REMARKS
JACKSON        SUNNY     34  17  50 VRB3      30.32F
6HR MIN TEMP:  26; 6HR MAX TEMP:  34;

LONDON         CLOUDY    33  17  51 S6        30.33F WCI  28
6HR MIN TEMP:  26; 6HR MAX TEMP:  33;

SOMERSET*      MOSUNNY   32  19  59 CALM      30.35F
MONTICELLO*    SUNNY     38  19  46 CALM      30.37F
6HR MIN TEMP:  27; 6HR MAX TEMP:  38;

HARLAN APT*    PTCLDY    36  19  51 W5        30.33F WCI  32
HAZARD APT*    PTCLDY    34  18  51 SW6       30.32F WCI  29
BLACK MTN*       N/A     25  23  93 SW5         N/A  WCI  19
PIKEVILLE APT* PTSUNNY   32  18  55 S3        30.31F
BIG SANDY*     CLOUDY    32  18  56 SW6       30.34F WCI  26
6HR MIN TEMP:  28; 6HR MAX TEMP:  32;

MOREHEAD APT*  PTCLDY    32  18  55 SW6       30.34F WCI  26
$$

KYZ035-036-041-042-044-050-067-078-099-281900
...CENTRAL KENTUCKY...

CITY           SKY/WX    TMP DP  RH WIND       PRES   REMARKS
MT STERLING*   MOSUNNY   34  19  55 S8        30.33F WCI  27
FLEMING/MASON* MOSUNNY   32  19  59 S6        30.33F WCI  26
DANVILLE*      PTSUNNY   34  21  60 SW8       30.34F WCI  27
RICHMOND*      PTSUNNY   34  18  51 S5        30.32F WCI  30
LEXINGTON      MOSUNNY   31  17  56 S12       30.32F WCI  22
6HR MIN TEMP:  25; 6HR MAX TEMP:  33;

FRANKFORT      MOSUNNY   32  18  56 S8        30.31F WCI  25
6HR MIN TEMP:  26; 6HR MAX TEMP:  33;

$$

KYZ091>093-OHZ055-061-077-WVZ005-015-034-035-042-281900
...SOUTHERN OHIO/WEST VIRGINIA...

CITY           SKY/WX    TMP DP  RH WIND       PRES   REMARKS
COVINGTON      CLOUDY    33  16  49 S10       30.29F WCI  25
COLUMBUS       CLOUDY    28  15  58 S8        30.31F WCI  20
DAYTON         CLOUDY    31  19  61 S14       30.27F WCI  21
WILMINGTON     CLOUDY    29  19  66 S10       30.27F WCI  20
HUNTINGTON     MIX PCPN  32  18  56 SW8       30.34F WCI  25
CHARLESTON     PTSUNNY   32  17  54 SW7       30.34F WCI  26
PINEVILLE*     CLOUDY    31  22  69 MISG      30.35S
BECKLEY        CLOUDY    25  16  68 VRB3      30.24F
BLUEFIELD      CLOUDY    26  17  68 VRB7      30.24F WCI  18
$$

VAZ002-007-008-TNZ017-027-036-066-071-281900
...SOUTHWEST VIRGINIA/EAST TENNESSEE...

CITY           SKY/WX    TMP DP  RH WIND       PRES   REMARKS
WISE*          SUNNY     32  19  59 CALM      30.27F
JONESVILLE*    CLEAR     34  18  51 W3        30.36F
ABINGDON*      MOSUNNY   31  20  62 W5        30.30F WCI  27
BRISTOL        MOSUNNY   34  21  59 S9        30.33F WCI  27
KNOXVILLE      MOSUNNY   37  21  52 CALM      30.36F
OAK RIDGE      SUNNY     38  19  46 VRB5      30.37F WCI  34
CROSSVILLE     SUNNY     38  11  32 SE5       30.30F WCI  34
NASHVILLE      SUNNY     41  21  44 SE8       30.34F
$$

...KEY TO REMARKS...
VSB - VISIBILITY IN MILES
WCI - WIND CHILL INDEX
HX  - HEAT INDEX

$$


USA.gov is the U.S. government's official web portal to all federal, state and local government web resources and services.